Wind_Speed
61 66 67 66 61 61 66 73 74 75 74 72 75 77 78 79 79 80 79 82 85 89 90 95 95 99 103 106 107 115 114 113
60 63 63 60 60 66 71 75 78 79 81 81 80 78 79 81 81 84 87 92 94 98 100 104 106 108 111 112 117 121 113 108
65 65 70 73 73 74 76 77 80 83 82 80 80 82 85 86 90 93 94 95 98 102 105 110 113 118 120 123 122 120 107 98
68 70 74 76 78 80 81 83 81 80 83 85 87 89 89 89 92 95 98 101 104 107 111 118 121 125 125 119 111 102 91 86
76 79 81 83 83 85 88 89 89 90 91 90 91 93 93 96 99 103 104 109 113 118 121 124 122 122 111 106 101 91 84 80
71 75 79 82 83 88 89 89 90 92 91 93 94 97 99 104 106 111 112 117 120 122 122 120 114 104 97 93 90 82 78 73
79 79 79 81 85 86 89 91 95 97 98 101 102 103 106 111 113 116 122 126 125 128 122 114 104 92 86 84 78 76 71 66
84 86 87 88 92 96 99 102 103 102 103 105 108 110 115 117 120 122 123 123 125 122 114 100 94 86 82 80 75 70 65 61
88 86 92 97 103 104 106 107 108 110 112 111 113 115 119 122 123 125 125 126 122 102 102 93 88 81 79 74 69 63 57 53
92 97 103 106 110 104 108 111 114 115 114 114 116 117 121 125 125 127 124 114 101 96 91 86 81 76 71 65 60 54 49 47
110 115 115 118 118 108 109 113 115 115 115 118 119 124 122 124 121 116 107 100 93 88 85 79 74 67 62 56 53 47 43 39
116 117 114 109 111 109 110 110 115 118 119 120 122 120 120 115 102 100 100 88 85 84 77 72 64 59 55 51 46 40 35 30
120 110 112 112 114 115 107 109 110 112 115 113 107 106 102 99 102 93 85 83 79 73 67 62 56 52 49 44 38 35 31 27
115 114 114 112 113 111 109 108 103 101 98 95 93 96 101 91 84 82 78 74 69 65 60 55 50 47 42 37 32 29 27 23
122 121 119 115 114 109 104 90 86 87 90 91 93 89 83 79 77 74 70 66 61 58 56 49 45 43 37 33 29 26 23 21
117 118 115 113 106 99 86 84 87 86 87 86 86 81 75 71 69 66 62 59 56 54 51 44 42 39 34 31 28 26 23 22
115 111 108 102 90 84 84 82 82 82 81 79 77 71 66 64 62 60 57 55 51 50 47 42 40 36 33 30 29 28 28 27
107 100 92 89 84 79 77 78 79 74 72 70 66 63 61 60 59 56 54 51 48 48 45 40 38 34 31 30 31 30 30 30
85 81 77 76 79 78 73 71 67 67 65 64 61 59 57 57 55 53 50 48 47 45 42 39 37 33 32 31 31 31 32 31
Wind_Direction
280 281 284 286 286 289 286 282 281 284 287 289 289 288 287 285 285 285 286 290 289 288 286 288 288 290 292 292 293 292 291 289
284 286 287 287 280 276 279 283 286 287 288 287 288 288 289 290 288 290 289 290 288 290 291 291 292 294 295 293 293 296 292 288
273 274 274 278 282 282 283 282 283 285 285 285 285 288 289 289 289 290 290 293 291 292 293 294 291 293 296 295 294 295 290 287
277 277 276 276 277 278 280 282 283 283 284 286 286 287 288 288 289 291 290 292 293 294 295 296 296 295 295 295 293 290 287 284
276 277 277 278 278 279 281 283 283 283 284 285 286 287 287 287 289 290 289 291 291 294 296 297 298 297 295 293 292 289 286 283
279 280 280 281 282 283 285 285 284 283 283 284 286 287 287 288 290 290 292 293 294 297 298 300 298 297 295 295 292 290 289 286
285 280 281 285 286 286 285 284 285 285 285 285 287 288 289 289 291 294 295 295 296 297 300 300 297 298 297 296 295 293 291 287
282 282 281 285 289 288 286 288 287 287 287 289 289 290 290 292 292 295 296 298 298 299 301 300 301 299 298 298 296 295 293 288
281 280 281 284 287 288 286 286 287 288 289 290 289 290 292 292 293 294 296 299 299 300 299 298 299 298 300 298 297 297 294 291
272 277 280 281 287 287 285 285 285 285 286 287 288 290 292 293 293 295 297 297 298 300 299 299 298 299 298 297 297 297 294 290
278 281 280 286 289 284 280 280 281 282 283 284 286 290 291 293 294 297 298 299 299 298 297 298 298 298 297 297 298 297 294 288
281 285 287 286 287 283 283 282 279 280 281 284 286 289 291 292 294 296 298 297 296 296 296 296 298 296 296 297 296 296 295 291
282 285 282 285 284 279 286 287 286 284 286 288 288 289 291 292 294 294 294 295 294 294 295 296 296 295 295 294 294 296 299 293
285 289 287 287 290 287 287 290 285 285 287 284 287 289 291 292 294 294 294 293 294 294 295 295 295 293 291 289 289 293 298 296
283 285 286 286 287 288 288 283 283 284 286 287 289 291 293 293 292 292 292 293 294 294 292 294 292 289 286 281 281 285 287 289
281 284 284 288 287 286 282 282 284 286 287 288 289 290 291 290 290 290 292 294 293 291 291 292 290 287 280 273 274 274 274 278
281 283 284 284 284 281 281 283 286 288 287 288 288 289 289 290 289 291 293 293 289 288 290 290 287 281 274 268 270 271 271 272
279 279 280 282 284 283 283 284 284 284 285 285 286 288 291 291 291 292 291 289 287 287 289 288 282 274 267 265 267 270 272 272
275 275 276 277 277 279 280 283 288 289 291 288 289 290 290 288 290 289 287 285 284 286 286 284 275 267 263 263 266 269 273 270
Height
10644 10640 10639 10638 10634 10632 10628 10624 10621 10618 10614 10610 10606 10601 10596 10592 10587 10582 10576 10570 10563 10555 10548 10540 10533 10526 10518 10510 10502 10494 10488 10481
10632 10628 10626 10624 10620 10617 10613 10610 10606 10602 10598 10593 10588 10583 10578 10573 10567 10561 10555 10547 10540 10533 10524 10516 10508 10500 10490 10481 10472 10462 10454 10447
10617 10612 10609 10608 10605 10602 10598 10593 10588 10585 10580 10575 10569 10564 10558 10552 10546 10539 10531 10524 10516 10509 10500 10492 10482 10473 10462 10452 10442 10430 10422 10417
10600 10596 10593 10590 10588 10585 10581 10575 10571 10566 10561 10555 10549 10543 10537 10531 10524 10517 10507 10500 10493 10484 10476 10467 10455 10443 10433 10422 10411 10400 10391 10387
10582 10577 10574 10571 10570 10566 10562 10557 10552 10547 10541 10534 10528 10522 10515 10507 10501 10493 10487 10476 10468 10460 10450 10438 10425 10412 10401 10392 10380 10371 10364 10359
10563 10558 10554 10552 10552 10547 10543 10537 10532 10525 10520 10513 10506 10499 10492 10484 10476 10469 10462 10453 10442 10433 10424 10410 10397 10385 10373 10362 10352 10343 10337 10332
10545 10541 10535 10533 10531 10527 10522 10516 10509 10504 10498 10491 10484 10475 10468 10460 10451 10445 10434 10425 10417 10405 10395 10382 10370 10357 10347 10338 10328 10320 10313 10308
10525 10522 10515 10512 10508 10505 10499 10493 10488 10481 10474 10467 10460 10453 10443 10436 10427 10418 10409 10398 10388 10378 10367 10355 10345 10335 10326 10318 10308 10299 10293 10288
10504 10501 10496 10493 10488 10482 10476 10470 10464 10457 10451 10444 10436 10427 10419 10410 10403 10393 10383 10374 10363 10352 10342 10332 10323 10315 10307 10298 10289 10282 10276 10270
10485 10483 10477 10473 10467 10458 10452 10446 10440 10432 10426 10420 10412 10405 10395 10387 10377 10368 10360 10348 10338 10329 10320 10311 10304 10298 10290 10282 10275 10268 10262 10257
10464 10459 10452 10450 10444 10437 10431 10423 10416 10408 10403 10397 10389 10382 10372 10363 10354 10344 10334 10326 10317 10309 10301 10293 10287 10282 10275 10268 10262 10256 10251 10246
10441 10434 10428 10426 10416 10412 10405 10400 10392 10386 10379 10374 10367 10357 10347 10338 10331 10323 10314 10305 10298 10291 10284 10276 10272 10267 10261 10256 10251 10246 10241 10237
10415 10412 10405 10403 10393 10388 10380 10373 10366 10361 10355 10349 10341 10334 10325 10317 10311 10302 10294 10287 10281 10274 10268 10262 10258 10253 10249 10245 10241 10237 10233 10229
10390 10382 10378 10376 10367 10363 10355 10348 10341 10336 10331 10325 10319 10311 10304 10298 10290 10282 10276 10271 10264 10258 10252 10248 10244 10241 10238 10235 10232 10229 10226 10223
10367 10361 10351 10347 10343 10336 10328 10323 10317 10314 10310 10304 10297 10290 10284 10278 10271 10265 10259 10254 10248 10242 10238 10235 10232 10229 10227 10225 10224 10222 10220 10219
10338 10334 10326 10321 10318 10310 10306 10301 10297 10293 10288 10282 10276 10271 10266 10260 10254 10248 10243 10239 10234 10229 10225 10223 10220 10217 10217 10216 10215 10215 10214 10213
10312 10309 10303 10297 10294 10289 10287 10282 10277 10273 10268 10263 10258 10253 10247 10243 10237 10232 10228 10225 10220 10216 10212 10211 10209 10207 10206 10206 10206 10206 10206 10206
10286 10284 10282 10274 10272 10268 10265 10263 10259 10254 10250 10246 10241 10236 10230 10226 10222 10218 10214 10211 10207 10204 10201 10199 10197 10196 10196 10196 10197 10197 10197 10197
10265 10263 10263 10258 10253 10251 10249 10245 10239 10236 10233 10228 10223 10219 10216 10211 10208 10204 10201 10197 10194 10192 10189 10187 10186 10186 10186 10187 10187 10187 10187 10187